Location: Asheville, NC
(35.6000°N, 82.5500°W)
Time: 12:56:06
(UTC-05:00)

Vanguard 1 Rocket - Pass Details

Date: 10 December 2017
Orbit: 656 x 4222 km, 34.3° (Epoch: 16 January)

Event Time Altitude Azimuth Distance (km) Brightness Sun altitude
Rises 16:06:46 0° 208° (SSW) 3,947 12.1 11.1°
Reaches altitude 10° 16:09:17 10° 198° (SSW) 3,299 11.4 10.7°
Maximum altitude 16:16:52 34° 136° (SE) 2,796 9.9 9.5°
Drops below altitude 10° 16:30:06 10° 79° (E) 5,804 11.0 7.3°
Sets 16:36:22 0° 73° (ENE) 7,403 11.4 6.3°
